Hourly Data Report for January 11, 2019

TORONTO CITY
ONTARIO
Current Station Operator: ECCC - MSC

43°40'00.000" N
79°24'00.000" W
112.50 m
6158355
71508
XTO

Download Data

Hourly Data (January 2019)
Hourly Data Report for January 11, 2019
TIME
LST
Temp Definition
°C
Dew Point Definition
°C
Rel Hum Definition
%
Precip. Amount Definition
mm

Wind Dir Definition
10's deg

Wind Spd Definition
km/h
Visibility Definition
km
Stn Press Definition
kPa
Hmdx Definition


Wind Chill Definition


Weather Definition


00:00 -9.5 -15.6 61 0.0 LegendMM LegendMM   101.03     LegendNANA
01:00 -10.3 -17.0 58 0.0 LegendMM LegendMM   101.07     LegendNANA
02:00 -10.8 -17.2 59 0.0 LegendMM LegendMM   101.12     LegendNANA
03:00 -11.3 -17.2 62 0.0 LegendMM LegendMM   101.17     LegendNANA
04:00 -11.8 -17.3 64 0.0 LegendMM LegendMM   101.19     LegendNANA
05:00 -11.9 -17.0 66 0.0 LegendMM LegendMM   101.25     LegendNANA
06:00 -11.9 -16.6 68 0.0 LegendMM LegendMM   101.31     LegendNANA
07:00 -11.9 -16.4 69 0.0 LegendMM LegendMM   101.37     LegendNANA
08:00 -12.1 -16.7 68 0.0 LegendMM LegendMM   101.46     LegendNANA
09:00 -11.5 -17.7 60 0.0 LegendMM LegendMM   101.59     LegendNANA
10:00 -11.6 -19.0 54 0.0 LegendMM LegendMM   101.71     LegendNANA
11:00 -10.3 -21.2 41 0.0 LegendMM LegendMM   101.71     LegendNANA
12:00 -9.3 -20.0 41 0.0 LegendMM LegendMM   101.66     LegendNANA
13:00 -9.1 -21.1 37 0.0 LegendMM LegendMM   101.66     LegendNANA
14:00 -7.9 -20.6 35 0.0 LegendMM LegendMM   101.62     LegendNANA
15:00 -8.2 -20.5 36 0.0 LegendMM LegendMM   101.65     LegendNANA
16:00 -7.8 -21.0 34 0.0 LegendMM LegendMM   101.64     LegendNANA
17:00 -7.8 -19.9 37 0.0 LegendMM LegendMM   101.66     LegendNANA
18:00 -7.8 -19.8 38 0.0 LegendMM LegendMM   101.70     LegendNANA
19:00 -7.6 -18.2 42 0.0 LegendMM LegendMM   101.73     LegendNANA
20:00 -7.6 -16.0 51 0.0 LegendMM LegendMM   101.75     LegendNANA
21:00 -7.9 -15.4 55 0.0 LegendMM LegendMM   101.75     LegendNANA
22:00 -7.5 -14.9 56 0.0 LegendMM LegendMM   101.79     LegendNANA
23:00 -7.3 -14.3 57 0.0 LegendMM LegendMM   101.74     LegendNANA

Notes on Data Quality.

Legend

  • E = Estimated
  • M = Missing
  • NA = Not Available*
  • [empty] = Indicates an unobserved value
Date modified: